Flag for Cyprus Weather past 2 weeks in Larnaca, Cyprus

Now
81 °F

Passing clouds.


Feels Like: 81 °F
Forecast: 64 / 85 °F
Wind: 9 mph from Southwest

Location: Larnaca Airport

Current Time: Oct 2, 2014 at 6:31:58 PM

Latest Report: Oct 2, 2014 at 6:00 PM


Visibility: N/A

Pressure: 29.92 "Hg

Humidity: 48%

Dew point: 59 °F

Location of LarnacaLocation

Historic Weather in Larnaca — Graph

°F

Larnaca temperature yesterday

Maximum temperature yesterday: 86 °F (at 1:00 PM)
Minimum temperature yesterday: 68 °F (at 12:30 AM)
Average temperature yesterday: 76 °F

Past Weeks' High & Low Weather Summary

 TemperatureHumidityPressure
High95 °F (Sep 25, 3:30 PM)89% (Sep 27, 3:30 PM)30.01 "Hg (Sep 27, 3:30 PM)
Low64 °F (Sep 29, 5:00 AM)16% (Sep 25, 3:30 PM)29.74 "Hg (Sep 17, 5:00 PM)
Average77 °F55%29.87 "Hg
* Reported Sep 17 5:00 PM — Oct 2 5:30 PM, Larnaca, Weather by CustomWeather, © 2014

Note: Actual official high and low records may vary slightly from our data, if they occured in-between our weather recording intervals... More about our weather records

Advertising

Larnaca weather history for previous 24 hours

 ConditionsComfort  
Time TempWeatherWind HumidityBarometerVisibility
5:30 PM
Oct 2
82 °FPassing clouds.9 mph32%29.92 "HgN/A
5:00 PM84 °FPassing clouds.12 mph31%29.92 "HgN/A
4:30 PM84 °FPassing clouds.14 mph25%29.92 "HgN/A
4:00 PM84 °FPassing clouds.16 mph31%29.92 "HgN/A
3:30 PM86 °FPassing clouds.17 mph31%29.92 "HgN/A
3:00 PM86 °FPassing clouds.16 mph25%29.92 "HgN/A
2:30 PM86 °FPassing clouds.16 mph31%29.92 "HgN/A
2:00 PM86 °FPassing clouds.14 mph29%29.92 "HgN/A
1:30 PM86 °FPassing clouds.12 mph31%29.92 "HgN/A
1:00 PM86 °FPassing clouds.14 mph33%29.95 "HgN/A
12:30 PM88 °FPassing clouds.6 mph27%29.95 "HgN/A
12:00 PM86 °FPassing clouds.6 mph25%29.95 "HgN/A
11:30 AM86 °FSunny.5 mph27%29.95 "Hg10 mi
11:00 AM86 °FPassing clouds.6 mph25%29.95 "HgN/A
10:30 AM84 °FPassing clouds.6 mph29%29.95 "HgN/A
10:00 AM82 °FPassing clouds.9 mph32%29.95 "HgN/A
9:30 AM82 °FPassing clouds.10 mph32%29.95 "HgN/A
9:00 AM81 °FPassing clouds.12 mph37%29.95 "HgN/A
8:30 AM79 °FPassing clouds.7 mph37%29.95 "HgN/A
8:00 AM75 °FPassing clouds.5 mph39%29.95 "HgN/A
7:30 AM72 °FPassing clouds.5 mph41%29.95 "HgN/A
7:00 AM70 °FPassing clouds.6 mph46%29.95 "HgN/A
6:30 AM70 °FPassing clouds.6 mph46%29.95 "HgN/A
6:00 AM72 °FPassing clouds.7 mph44%29.92 "HgN/A
5:30 AM72 °FPassing clouds.7 mph47%29.92 "HgN/A
5:00 AM73 °FClear.8 mph44%29.92 "Hg10 mi
4:30 AM73 °FClear.9 mph47%29.92 "Hg10 mi
4:00 AM73 °FClear.8 mph47%29.92 "Hg10 mi
3:30 AM73 °FClear.8 mph47%29.92 "Hg10 mi
3:00 AM73 °FClear.12 mph47%29.92 "Hg10 mi
2:30 AM73 °FClear.10 mph44%29.92 "Hg10 mi
2:00 AM73 °FClear.6 mph44%29.92 "Hg10 mi
1:00 AM72 °FClear.No wind47%29.92 "Hg10 mi
12:30 AM72 °FClear.No wind50%29.95 "Hg10 mi
12:00 AM72 °FClear.2 mph50%29.95 "Hg10 mi
11:30 PM
Oct 1
72 °FClear.5 mph47%29.95 "Hg10 mi
11:00 PM73 °FClear.7 mph47%29.95 "Hg10 mi
10:30 PM72 °FPassing clouds.7 mph47%29.95 "HgN/A
10:00 PM70 °FPassing clouds.7 mph40%29.95 "HgN/A
9:30 PM72 °FClear.5 mph31%29.98 "Hg10 mi
9:00 PM70 °FPassing clouds.5 mph35%29.98 "HgN/A
8:30 PM73 °FPassing clouds.6 mph31%29.95 "HgN/A
8:00 PM73 °FClear.8 mph29%29.95 "Hg10 mi
7:30 PM77 °FPassing clouds.6 mph26%29.95 "HgN/A
7:00 PM79 °FPassing clouds.7 mph28%29.92 "HgN/A
6:30 PM81 °FPassing clouds.8 mph23%29.92 "HgN/A
6:00 PM82 °FPassing clouds.7 mph21%29.92 "HgN/A
Weather by CustomWeather, © 2014

See weather overviewHow to use our weather pages